Regional Weather Roundup
Issued by NWS

Home | Current Version | Previous Version | Text Only | Print | Product List | Glossary Off
Versions: 1 2 3 4 5 6 7 8 9 10 11 12 13 14 15 16 17 18 19 20 21 22 23 24 25 26 27 28 29 30 31 32 33 34 35 36 37 38 39 40 41 42 43 44 45 46 47 48 49 50

000
ASUS45 KCYS 190910
RWRWY

WYOMING REGIONAL WEATHER ROUNDUP
NATIONAL WEATHER SERVICE CHEYENNE WY
300 AM MDT THU APR 19 2018

NOTE:  "FAIR" INDICATES FEW OR NO CLOUDS BELOW 12,000 FEET
WITH NO SIGNIFICANT WEATHER AND/OR OBSTRUCTIONS TO VISIBILITY.

WYZ001-191000-
YELLOWSTONE NATIONAL PARK

CITY           SKY/WX    TMP DP  RH WIND       PRES   REMARKS
LK YELLOWSTONE   N/A     17  10  74 CALM      30.13F
W YELLOWSTONE  NOT AVBL

$$
WYZ002>013-054>058-071-098>099-191000-
NORTHERN WYOMING

CITY           SKY/WX    TMP DP  RH WIND       PRES   REMARKS
JACKSON        FAIR      30  20  66 VRB3      30.08F
CODY           FAIR      35  24  64 S5        30.13F WCI  31
GREYBULL       NOT AVBL
WORLAND        FAIR      33  26  75 VRB5      30.11F WCI  29
SHERIDAN       FAIR      35  24  64 S6        30.18F WCI  30
BUFFALO        FAIR      35  21  56 SE7       30.21S WCI  29
GILLETTE       FAIR      34  25  69 SE8       30.23S WCI  27
HULETT         FAIR      37  27  65 CALM      30.26S
NEWCASTLE      FAIR      32  23  69 E9        30.29R WCI  24

$$
WYZ014>020-022>026-101>103-191000-
CENTRAL WYOMING

CITY           SKY/WX    TMP DP  RH WIND       PRES   REMARKS
BIG PINEY      NOT AVBL
PINEDALE       FAIR      28  19  69 NW7       30.10F WCI  21
DUBOIS         PTSUNNY   30  18  59 CALM      30.11F
LANDER         FAIR      35  20  54 NW3       30.10F
RIVERTON       FAIR      32  21  64 NE5       30.11F WCI  27
CASPER         FAIR      33  22  63 SE6       30.16F WCI  28
DOUGLAS        FAIR      32  24  72 SE13      30.24F WCI  22

$$
WYZ021-027>030-104>119-191000-
SOUTHERN WYOMING

CITY           SKY/WX    TMP DP  RH WIND       PRES   REMARKS
EVANSTON       NOT AVBL
KEMMERER       FAIR      32   7  34 N9        30.05F WCI  24
FORT BRIDGER   FAIR      32   6  33 W5        30.07F WCI  27
ROCK SPRINGS   NOT AVBL
DIXON          FAIR      35  19  51 CALM      30.11F
RAWLINS        FAIR      32  18  56 NE10      30.12F WCI  24
SARATOGA       FAIR      34  10  37 SE13      30.12S WCI  25
LARAMIE        FAIR      30  15  53 SE22G31   30.18F WCI  17
CHEYENNE       FAIR      30  18  60 S5        30.26F WCI  25
TORRINGTON     FAIR      27  23  85 E7        30.28R WCI  19
PINE BLUFFS    FAIR      32  21  64 MISG      30.29S

$$



USA.gov is the U.S. government's official web portal to all federal, state and local government web resources and services.